Flag for Thailand Weather past 2 weeks in Phuket, Thailand

Now
84 °F

Passing clouds.


Feels Like: 92 °F
Forecast: 80 / 84 °F
Wind: 17 mph from West

Location: Phuket Airport

Current Time: Jul 3, 2015 at 11:31:09 PM

Latest Report: Jul 3, 2015 at 10:30 PM


Visibility: N/A

Pressure: 29.89 "Hg

Humidity: 74%

Dew point: 75 °F

Location of PhuketLocation

Historic Weather in Phuket — Graph

°F

Phuket temperature yesterday

Maximum temperature yesterday: 88 °F (at 9:30 AM)
Minimum temperature yesterday: 79 °F (at 12:30 AM)
Average temperature yesterday: 84 °F

Past Weeks' High & Low Weather Summary

 TemperatureHumidityPressure
High91 °F (Jun 27, 12:30 PM)100% (Jun 23, 12:00 AM)30.01 "Hg (Jun 23, 12:00 AM)
Low36 °F (Jun 23, 12:00 AM)55% (Jun 26, 2:00 PM)29.74 "Hg (Jun 20, 4:30 PM)
Average84 °F76%29.86 "Hg
* Reported Jun 18 10:00 PM — Jul 3 10:30 PM, Phuket, Weather by CustomWeather, © 2015

Note: Actual official high and low records may vary slightly from our data, if they occured in-between our weather recording intervals... More about our weather records

Advertising

Phuket weather history for previous 24 hours

 ConditionsComfort  
Time TempWeatherWind HumidityBarometerVisibility
10:30 PM
Fri, Jul 3
84 °FPassing clouds.17 mph74%29.89 "HgN/A
10:00 PM84 °FPassing clouds.17 mph74%29.86 "HgN/A
9:30 PM84 °FPassing clouds.18 mph70%29.86 "HgN/A
9:00 PM84 °FPassing clouds.17 mph70%29.86 "HgN/A
8:30 PM86 °FPassing clouds.17 mph66%29.86 "HgN/A
8:00 PM84 °FPassing clouds.16 mph74%29.86 "HgN/A
7:30 PM86 °FPassing clouds.17 mph70%29.83 "HgN/A
7:00 PM86 °FPartly cloudy.17 mph66%29.83 "HgN/A
6:30 PM86 °FBroken clouds.21 mph70%29.83 "HgN/A
6:00 PM86 °FPartly sunny.21 mph70%29.83 "HgN/A
5:30 PM86 °FPartly sunny.20 mph70%29.83 "HgN/A
5:00 PM88 °FPartly sunny.18 mph66%29.83 "HgN/A
4:30 PM88 °FPartly sunny.22 mph66%29.80 "HgN/A
4:00 PM88 °FPartly sunny.22 mph66%29.80 "HgN/A
3:30 PM88 °FPartly sunny.22 mph66%29.83 "HgN/A
3:00 PM90 °FPartly sunny.22 mph63%29.83 "HgN/A
2:30 PM90 °FPartly sunny.22 mph63%29.83 "HgN/A
2:00 PM90 °FPartly sunny.22 mph63%29.83 "HgN/A
1:30 PM88 °FBroken clouds.23 mph70%29.86 "HgN/A
1:00 PM88 °FBroken clouds.20 mph70%29.86 "Hg4 mi
12:30 PM88 °FBroken clouds.21 mph66%29.86 "HgN/A
12:00 PM88 °FScattered clouds.21 mph70%29.86 "HgN/A
11:30 AM86 °FPartly sunny.23 mph66%29.89 "HgN/A
11:00 AM82 °FPartly sunny.8 mph79%29.89 "HgN/A
10:30 AM84 °FLight rain. Broken clouds.14 mph84%29.89 "Hg5 mi
9:30 AM88 °FBroken clouds.18 mph70%29.89 "HgN/A
9:00 AM88 °FBroken clouds.17 mph66%29.89 "HgN/A
8:30 AM86 °FBroken clouds.16 mph70%29.86 "HgN/A
8:00 AM86 °FBroken clouds.14 mph75%29.86 "Hg6 mi
7:30 AM84 °FBroken clouds.13 mph74%29.86 "Hg6 mi
7:00 AM81 °FBroken clouds.12 mph84%29.86 "Hg6 mi
6:30 AM84 °FLight rain. Broken clouds.14 mph74%29.86 "Hg3 mi
6:00 AM84 °FPartly cloudy.15 mph70%29.86 "HgN/A
5:30 AM84 °FPartly cloudy.17 mph70%29.86 "HgN/A
5:00 AM84 °FPartly cloudy.18 mph74%29.86 "HgN/A
4:00 AM84 °FPartly cloudy.14 mph74%29.83 "HgN/A
3:30 AM84 °FPartly cloudy.14 mph74%29.83 "HgN/A
3:00 AM84 °FPartly cloudy.14 mph74%29.83 "HgN/A
2:30 AM84 °FPartly cloudy.12 mph74%29.86 "HgN/A
2:00 AM84 °FPartly cloudy.12 mph74%29.86 "HgN/A
1:30 AM84 °FPartly cloudy.12 mph74%29.86 "HgN/A
1:00 AM84 °FPartly cloudy.12 mph74%29.89 "HgN/A
12:30 AM84 °FPartly cloudy.10 mph74%29.89 "HgN/A
12:00 AM84 °FPartly cloudy.14 mph74%29.92 "HgN/A
11:30 PM
Thu, Jul 2
84 °FPartly cloudy.14 mph74%29.92 "HgN/A
11:00 PM84 °FPartly cloudy.12 mph74%29.92 "HgN/A
Weather by CustomWeather, © 2015

See weather overviewHow to use our weather pages